Roswell, NM

5:50 AM MDT on July 26, 2017 (GMT -0600)
Roswell Industrial

Weather History for KROW - July, 2014

Change the Weather History Date:

Monday, July 7, 2014

  Actual Average Record
Temperature  
Mean Temperature 78 °F 81 °F  
Max Temperature 94 °F 94 °F 106 °F (1993)
Min Temperature 61 °F 67 °F 56 °F (1947)
Degree Days  
Heating Degree Days 0 0  
Month to date heating degree days 0 0  
Since 1 June heating degree days 0 1  
Since 1 July heating degree days 0 0  
Cooling Degree Days 13 16  
Month to date cooling degree days 98 110  
Year to date cooling degree days 832 732  
Since 1 June cooling degree days 578 507  
Growing Degree Days 27 (Base 50)    
Moisture  
Dew Point 52 °F    
Average Humidity 46    
Maximum Humidity 72    
Minimum Humidity 19    
Precipitation  
Precipitation 0.00 in 0.08 in 1.31 in (1960)
Month to date precipitation 0.13 0.54  
Year to date precipitation 6.42 5.44  
Sea Level Pressure  
Sea Level Pressure 29.84 in    
Wind  
Wind Speed 5 mph (SSE)    
Max Wind Speed 16 mph    
Max Gust Speed 21 mph    
Visibility 10 miles    
Events      
T = Trace of Precipitation, MM = Missing Value Source: NWS Daily Summary

Daily Weather History Graph

Daily Weather History Graph

Search for Another Location

Airport or City:

Trip Planner

Search our weather history database for the weather conditions in past years. The results will help you decide how hot, cold, wet, or windy it might be!

Date:

Astronomy

Jul. 07, 2014 Rise Set
Actual Time 5:55 AM MDT 8:10 PM MDT
Civil Twilight 5:26 AM MDT 8:39 PM MDT
Nautical Twilight 4:51 AM MDT 9:14 PM MDT
Astronomical Twilight 4:13 AM MDT 9:52 PM MDT
Moon 3:23 PM MDT (7/7) 1:41 AM MDT (7/7)
Length of Visible Light 15h 12m
Length of Day
14h 15m
Waxing Gibbous, 73% of the Moon is Illuminated
Jul 7
Waxing Gibbous
Jul 12
Full
Jul 18
Last Quarter
Jul 26
New
Aug 3
First Quarter

Hourly Weather History & Observations

Time (MDT) Temp. Heat Index Dew Point Humidity Pressure Visibility Wind Dir Wind Speed Gust Speed Precip Events Conditions
12:51 AM 70.0 °F - 54.0 °F 57% 29.89 in 10.0 mi Calm Calm - N/A   Clear
1:51 AM 68.0 °F - 54.0 °F 61% 29.88 in 10.0 mi Calm Calm - N/A   Clear
2:51 AM 66.9 °F - 54.0 °F 63% 29.88 in 10.0 mi ESE 3.5 mph - N/A   Clear
3:51 AM 63.0 °F - 53.1 °F 70% 29.88 in 10.0 mi South 3.5 mph - N/A   Clear
4:51 AM 63.0 °F - 53.1 °F 70% 29.89 in 10.0 mi SW 4.6 mph - N/A   Clear
5:51 AM 64.0 °F - 54.0 °F 70% 29.90 in 10.0 mi SSW 3.5 mph - N/A   Clear
6:51 AM 66.0 °F - 55.0 °F 68% 29.90 in 10.0 mi WSW 3.5 mph - N/A   Clear
7:51 AM 73.0 °F - 59.0 °F 61% 29.90 in 10.0 mi West 3.5 mph - N/A   Clear
8:51 AM 75.9 °F - 59.0 °F 56% 29.91 in 10.0 mi Calm Calm - N/A   Clear
9:51 AM 80.1 °F 80.6 °F 57.9 °F 47% 29.90 in 10.0 mi Calm Calm - N/A   Clear
10:51 AM 84.0 °F 83.3 °F 57.0 °F 40% 29.88 in 10.0 mi Calm Calm - N/A   Clear
11:51 AM 88.0 °F 85.9 °F 54.0 °F 31% 29.87 in 10.0 mi SSE 4.6 mph - N/A   Clear
12:51 PM 89.1 °F 86.9 °F 54.0 °F 30% 29.85 in 10.0 mi North - - N/A   Clear
1:51 PM 91.0 °F - 50.0 °F 24% 29.84 in 10.0 mi ESE 8.1 mph - N/A   Clear
2:51 PM 93.0 °F - 51.1 °F 24% 29.81 in 10.0 mi SE 8.1 mph 16.1 mph N/A   Clear
3:51 PM 93.0 °F - 48.9 °F 22% 29.79 in 10.0 mi SSE 6.9 mph - N/A   Clear
4:51 PM 93.9 °F - 48.9 °F 21% 29.77 in 10.0 mi SE 9.2 mph 18.4 mph N/A   Clear
5:51 PM 93.0 °F - 48.0 °F 21% 29.75 in 10.0 mi Variable 6.9 mph - N/A   Clear
6:51 PM 93.0 °F - 44.1 °F 18% 29.76 in 10.0 mi SE 13.8 mph - N/A   Clear
7:51 PM 89.1 °F - 45.0 °F 22% 29.76 in 10.0 mi SE 6.9 mph - N/A   Clear
8:51 PM 82.9 °F - 46.9 °F 28% 29.78 in 10.0 mi SE 6.9 mph - N/A   Clear
9:51 PM 79.0 °F - 46.9 °F 32% 29.80 in 10.0 mi SSE 6.9 mph - N/A   Clear
10:51 PM 78.1 °F - 46.0 °F 32% 29.81 in 10.0 mi SSE 6.9 mph - N/A   Clear
11:51 PM 75.9 °F - 46.9 °F 36% 29.82 in 10.0 mi SSE 6.9 mph - N/A   Clear